SL-16 DEB, 22609

Orbit data source: Space-Track

SL-16 DEB, 22609 is space debris in LEO originally from a launch on Fri, 26 Mar 1993 UTC launched from the Tyuratam Missile And Space Complex (TTMTR). Debris objects in space refer to the collection of defunct objects orbiting the Earth. Examples of debris include non-operational satellites, rocket bodies, and fragments generated from explosions, collisions, or faulty payload assembly.

Loading next visibility...
Identifier
22609, 1993-016T
Orbit
LEO
Country
Flag of CISCIS
Related business
Manufacturer
Unknown
Mission
Spacecraft
Bus & Motor
Unknown
Mass
Unknown
Launch date (UTC)
1993-03-26 (33 years ago)
Launch vehicle
Unknown
Launch site
Tyuratam Missile And Space Complex (TTMTR)
Object type
Payload
Rocket body
Debris
Shape & HBR
Unknown shape, 0.1 m
Radar Cross Section
Small (<0.1 m²)

Expand to show TLE details & history
Last TLE update: 8 hours ago

TLE from 8 hours ago
0 SL-16 DEB
1 22609U 93016T   26035.36725435  .00000593  00000-0  48731-3 0  9992
2 22609  70.9928  21.7214 0135131   3.1738 146.3750 13.89222412661642
Epoch: 2026-02-04T08:48Z
TLE epoch observation values (Epoch: 2026-02-04T08:48:50.775Z)
Latitude
27.89559°
Longitude
-75.47702°
Altitude
1,016.907 km
Speed
7.304 km/s
True Right ascension
12h 45m 04s
True Declination
27° 45' 31"
Sunlit
Object was in full shadow at epoch
Visualization orbit readout
Latitude
Unknown
Longitude
Unknown
Altitude
Unknown
Speed
Unknown
Apparent Right ascension
Unknown
Apparent Declination
Unknown
Sunlit
N/A
Visualization observer readout
Local Sidereal Time
18:42:53
Azimuth
Unknown
Elevation
Unknown
Doppler factor
Unknown
Orbital elements
Apogee altitude
1,028.054 km
Perigee altitude
830.561 km
Semi-major axis
7,307.445 km
Eccentricity
0.01351
Inclination
70.9928°
RAAN
21.7214°
Arg. of periapsis
3.1738°
True anomaly
147.22055°
Mean anomaly
146.375°
Eccentric anomaly
146.79896°
Mean motion
3.47452 °/min
Orbital period
103.61 mins
BSTAR
0.00048731
Loading maneuver chart data...
Computing Atmospheric mass density...
Loading historical data...
Loading historical data...
Loading historical data...
Loading historical data...
Loading historical data...
Loading historical data...
Loading historical data...

Documentation

Showing up to 5 results
|